Tracking 30009 objects as of 7-Dec-2024
HD Live streaming from Space Station
objects crossing your sky now

EKRAN 18

Track EKRAN 18 now!
EKRAN 18 is classified as:


NORAD ID: 19090
Int'l Code: 1988-036A
Perigee: 37,247.1 km
Apogee: 37,321.6 km
Inclination: 14.1 °
Period: 1,512.9 minutes
Semi major axis: 43655 km
RCS: 6.0212 m2 (large)
Launch date: May 6, 1988
Source: Commonwealth of Independent States (former USSR) (CIS)
Launch site: TYURATAM MISSILE AND SPACE COMPLEX (TTMTR)
Your satellite tracking list
Your tracking list is empty




NASA's NSSDC Master Catalog

Two Line Element Set (TLE):
1 19090U 88036A   24342.30055828 -.00000133  00000-0  00000-0 0  9998
2 19090  14.0566 336.1232 0008531  92.2151  91.0244  0.95180261111713
Source of the keplerian elements: AFSPC